Dubuque, IA

2:35 PM CST on November 13, 2019 (GMT -0600)
Dubuque Regional

Weather History for KDBQ - October, 2019

Change the Weather History Date:

Wednesday, October 23, 2019

  Actual Average Record
Temperature  
Mean Temperature 43 °F 48 °F  
Max Temperature 55 °F 57 °F 85 °F (1899)
Min Temperature 31 °F 38 °F 21 °F (1895)
Degree Days  
Heating Degree Days 22 17  
Month to date heating degree days 329 317  
Since 1 July heating degree days 391 495  
Cooling Degree Days 0 0  
Month to date cooling degree days 9 4  
Year to date cooling degree days 679 641  
Moisture  
Dew Point 35 °F    
Average Humidity 77    
Maximum Humidity 89    
Minimum Humidity 50    
Precipitation  
Precipitation 0.20 in 0.09 in 2.58 in (1959)
Month to date precipitation 6.21 1.97  
Year to date precipitation 50.65 31.41  
Snow  
Snow 0.00 in 0.00 in - ()
Month to date snowfall 0.0 0.0  
Since 1 July snowfall 0.0 0.0  
Since 1 September snowfall 0.0 0.0  
Snow Depth 0.00 in    
Sea Level Pressure  
Sea Level Pressure 29.93 in    
Wind  
Wind Speed 6 mph ()    
Max Wind Speed 18 mph    
Max Gust Speed 23 mph    
Visibility 9.3 miles    
Events Rain    
T = Trace of Precipitation, MM = Missing Value Source: Averaged Metar Reports

Daily Weather History Graph

Daily Weather History Graph

Search for Another Location

Airport or City:

Astronomy

Oct. 23, 2019 Rise Set
Actual Time 7:24 AM CDT 6:08 PM CDT
Civil Twilight 6:56 AM CDT 6:37 PM CDT
Nautical Twilight 6:23 AM CDT 7:10 PM CDT
Astronomical Twilight 5:50 AM CDT 7:42 PM CDT
Moon 1:34 AM CDT (10/23) 4:07 PM CDT (10/23)
Length of Visible Light 11h 41m
Length of Day
10h 43m
Waning Crescent, 26% of the Moon is Illuminated
Oct 23
Waning Crescent
Oct 27
New
Nov 4
First Quarter
Nov 12
Full
Nov 19
Last Quarter

Hourly Weather History & Observations

Time (CDT) Temp. Windchill Dew Point Humidity Pressure Visibility Wind Dir Wind Speed Gust Speed Precip Events Conditions
12:53 AM 37.0 °F 32.4 °F 28.9 °F 73% 29.82 in 10.0 mi WSW 5.8 mph - N/A   Clear
1:53 AM 35.1 °F 29.3 °F 28.9 °F 78% 29.83 in 10.0 mi SW 6.9 mph - N/A   Clear
2:53 AM 33.1 °F 26.9 °F 28.0 °F 82% 29.85 in 10.0 mi SW 6.9 mph - N/A   Clear
3:53 AM 34.0 °F 26.6 °F 28.9 °F 82% 29.85 in 10.0 mi SW 9.2 mph - N/A   Clear
4:53 AM 34.0 °F 29.8 °F 28.9 °F 82% 29.87 in 10.0 mi WSW 4.6 mph - N/A   Clear
5:53 AM 32.0 °F 28.7 °F 28.0 °F 85% 29.88 in 10.0 mi SSW 3.5 mph - N/A   Clear
6:53 AM 32.0 °F 27.5 °F 28.9 °F 88% 29.90 in 10.0 mi South 4.6 mph - N/A   Clear
7:53 AM 33.1 °F - 28.9 °F 85% 29.90 in 10.0 mi Calm Calm - N/A   Clear
8:53 AM 36.0 °F - 32.0 °F 86% 29.93 in 10.0 mi Calm Calm - N/A   Scattered Clouds
9:53 AM 39.9 °F 34.5 °F 34.0 °F 79% 29.95 in 10.0 mi South 8.1 mph - N/A   Overcast
10:53 AM 45.0 °F 43.5 °F 35.1 °F 68% 29.93 in 10.0 mi Variable 3.5 mph - N/A   Partly Cloudy
11:53 AM 48.0 °F - 34.0 °F 58% 29.93 in 10.0 mi Calm Calm - N/A   Overcast
12:53 PM 52.0 °F - 35.1 °F 53% 29.89 in 10.0 mi ENE 3.5 mph - N/A   Overcast
1:53 PM 52.0 °F - 37.0 °F 57% 29.88 in 10.0 mi SSE 6.9 mph - N/A   Mostly Cloudy
2:53 PM 54.0 °F - 36.0 °F 51% 29.88 in 10.0 mi Variable 4.6 mph - N/A   Mostly Cloudy
3:53 PM 53.1 °F - 37.9 °F 57% 29.86 in 10.0 mi East 4.6 mph - N/A   Mostly Cloudy
4:24 PM 50.0 °F - 41.0 °F 71% 29.91 in 1.8 mi WNW 3.5 mph - 0.04 in Rain Rain
4:29 PM 50.0 °F - 42.1 °F 74% 29.91 in 3.0 mi Calm Calm - 0.05 in Rain Rain
4:53 PM 48.0 °F - 42.1 °F 80% 29.94 in 10.0 mi NNW 6.9 mph - 0.06 in   Overcast
6:53 PM 43.0 °F 36.8 °F 39.0 °F 86% 29.99 in 7.0 mi North 11.5 mph - 0.06 in Rain Light Rain
7:53 PM 41.0 °F 33.5 °F 37.9 °F 89% 30.01 in 10.0 mi NNE 13.8 mph - 0.04 in   Overcast
8:53 PM 41.0 °F 33.5 °F 37.0 °F 86% 30.03 in 10.0 mi North 13.8 mph - N/A   Overcast
9:41 PM 41.0 °F 33.9 °F 37.9 °F 89% 30.02 in 10.0 mi North 12.7 mph - N/A   Overcast
9:53 PM 41.0 °F 33.1 °F 37.0 °F 86% 30.05 in 10.0 mi North 15.0 mph - N/A   Overcast
10:07 PM 39.9 °F 32.9 °F 37.0 °F 89% 30.03 in 10.0 mi North 11.5 mph - N/A   Overcast
10:53 PM 39.9 °F 32.9 °F 37.0 °F 89% 30.07 in 10.0 mi North 11.5 mph - 0.00 in Rain Light Rain
11:53 PM 39.9 °F 33.9 °F 37.0 °F 89% 30.10 in 10.0 mi NNW 9.2 mph - 0.00 in   Overcast